Hourly Weather Kozuszki

Today, 24 October, Saturday

Time Temperature Precipitation Wind Pressure Humidity
00:00 +12°C° 0.1 mm 2 mps 745 mmHg 97%
01:00 +12°C° 0.1 mm 2 mps 745 mmHg 97%
02:00 +12°C° 0.1 mm 2 mps 745 mmHg 98%
03:00 +12°C° 0.3 mm 2 mps 744 mmHg 95%
04:00 +12°C° 0.3 mm 3 mps 744 mmHg 92%
05:00 +12°C° 0.3 mm 4 mps 744 mmHg 89%
06:00 +12°C° 0.7 mm 4 mps 744 mmHg 91%
07:00 +12°C° 0.7 mm 4 mps 744 mmHg 93%
08:00 +11°C° 0.7 mm 4 mps 744 mmHg 94%
09:00 +12°C° 0.1 mm 4 mps 744 mmHg 92%
10:00 +12°C° 0.1 mm 4 mps 744 mmHg 89%
11:00 +13°C° 0.1 mm 4 mps 745 mmHg 86%
12:00 +13°C° 0 mm 4 mps 745 mmHg 80%
13:00 +14°C° 0 mm 4 mps 745 mmHg 74%
14:00 +15°C° 0 mm 4 mps 746 mmHg 68%
15:00 +14°C° 0 mm 3 mps 746 mmHg 73%
16:00 +13°C° 0 mm 3 mps 746 mmHg 77%
17:00 +13°C° 0 mm 2 mps 746 mmHg 81%
18:00 +13°C° 0 mm 2 mps 747 mmHg 84%
19:00 +11°C° 0 mm 3 mps 747 mmHg 87%
20:00 +10°C° 0 mm 3 mps 747 mmHg 90%
21:00 +10°C° 0 mm 3 mps 748 mmHg 91%
22:00 +10°C° 0 mm 3 mps 748 mmHg 92%
23:00 +10°C° 0 mm 3 mps 748 mmHg 93%

Tomorrow, 25 October, Sunday

Time Temperature Precipitation Wind Pressure Humidity
00:00 +10°C° 0 mm 3 mps 748 mmHg 94%
01:00 +9°C° 0 mm 3 mps 748 mmHg 95%
02:00 +9°C° 0 mm 2 mps 748 mmHg 95%
03:00 +9°C° 0 mm 2 mps 748 mmHg 95%
04:00 +9°C° 0 mm 2 mps 748 mmHg 95%
05:00 +9°C° 0 mm 2 mps 748 mmHg 95%
06:00 +9°C° 0 mm 2 mps 748 mmHg 95%
07:00 +8°C° 0 mm 2 mps 749 mmHg 95%
08:00 +8°C° 0 mm 2 mps 749 mmHg 95%
09:00 +10°C° 0 mm 2 mps 749 mmHg 90%
10:00 +13°C° 0 mm 2 mps 749 mmHg 84%
11:00 +14°C° 0 mm 2 mps 749 mmHg 78%
12:00 +15°C° 0 mm 2 mps 749 mmHg 74%
13:00 +16°C° 0 mm 2 mps 749 mmHg 71%
14:00 +16°C° 0 mm 2 mps 749 mmHg 67%
15:00 +15°C° 0 mm 2 mps 749 mmHg 71%
16:00 +14°C° 0 mm 2 mps 748 mmHg 76%
17:00 +13°C° 0 mm 2 mps 748 mmHg 80%
18:00 +13°C° 0 mm 2 mps 748 mmHg 83%
19:00 +11°C° 0 mm 3 mps 748 mmHg 87%
20:00 +11°C° 0 mm 3 mps 748 mmHg 90%
21:00 +10°C° 0 mm 3 mps 748 mmHg 89%
22:00 +10°C° 0 mm 3 mps 748 mmHg 89%
23:00 +10°C° 0 mm 3 mps 748 mmHg 88%

Day after tomorrow, 26 October, Monday

Time Temperature Precipitation Wind Pressure Humidity
00:00 +10°C° 0 mm 3 mps 748 mmHg 88%
01:00 +9°C° 0 mm 3 mps 748 mmHg 88%
02:00 +8°C° 0 mm 4 mps 747 mmHg 88%
03:00 +8°C° 0 mm 4 mps 747 mmHg 88%
04:00 +10°C° 0 mm 4 mps 747 mmHg 88%
05:00 +9°C° 0 mm 5 mps 746 mmHg 88%
06:00 +9°C° 0 mm 5 mps 746 mmHg 89%
07:00 +9°C° 0 mm 5 mps 746 mmHg 90%
08:00 +9°C° 0 mm 5 mps 746 mmHg 91%
09:00 +10°C° 0 mm 5 mps 746 mmHg 88%
10:00 +11°C° 0 mm 6 mps 746 mmHg 85%
11:00 +13°C° 0 mm 6 mps 745 mmHg 82%
12:00 +14°C° 0 mm 6 mps 745 mmHg 78%
13:00 +15°C° 0 mm 6 mps 745 mmHg 74%
14:00 +16°C° 0 mm 6 mps 745 mmHg 71%
15:00 +15°C° 0 mm 5 mps 745 mmHg 73%
16:00 +15°C° 0 mm 5 mps 745 mmHg 76%
17:00 +14°C° 0 mm 4 mps 744 mmHg 79%
18:00 +14°C° 0 mm 4 mps 745 mmHg 79%
19:00 +14°C° 0 mm 5 mps 745 mmHg 80%
20:00 +14°C° 0 mm 5 mps 745 mmHg 80%
21:00 +13°C° 0 mm 5 mps 745 mmHg 83%
22:00 +13°C° 0 mm 5 mps 745 mmHg 85%
23:00 +12°C° 0 mm 5 mps 744 mmHg 87%

, 27 October, Tuesday

Time Temperature Precipitation Wind Pressure Humidity
00:00 +12°C° 0 mm 5 mps 744 mmHg 87%
01:00 +13°C° 0 mm 5 mps 745 mmHg 86%
02:00 +13°C° 0 mm 5 mps 745 mmHg 85%
03:00 +13°C° 0 mm 5 mps 745 mmHg 84%
04:00 +13°C° 0 mm 5 mps 745 mmHg 83%
05:00 +13°C° 0 mm 5 mps 745 mmHg 83%
06:00 +13°C° 0 mm 5 mps 745 mmHg 83%
07:00 +13°C° 0 mm 4 mps 745 mmHg 83%
08:00 +13°C° 0 mm 4 mps 745 mmHg 83%
09:00 +13°C° 0 mm 5 mps 745 mmHg 80%
10:00 +14°C° 0 mm 5 mps 746 mmHg 78%
11:00 +15°C° 0 mm 5 mps 746 mmHg 75%
12:00 +16°C° 0 mm 5 mps 746 mmHg 72%
13:00 +16°C° 0 mm 5 mps 746 mmHg 69%
14:00 +17°C° 0 mm 5 mps 746 mmHg 66%
15:00 +17°C° 0 mm 4 mps 746 mmHg 69%
16:00 +17°C° 0 mm 4 mps 746 mmHg 72%
17:00 +15°C° 0 mm 4 mps 745 mmHg 75%
18:00 +14°C° 0 mm 4 mps 746 mmHg 77%
19:00 +14°C° 0 mm 4 mps 746 mmHg 78%
20:00 +13°C° 0 mm 4 mps 746 mmHg 79%
21:00 +13°C° 0 mm 4 mps 746 mmHg 82%
22:00 +13°C° 0 mm 4 mps 746 mmHg 84%
23:00 +13°C° 0 mm 4 mps 746 mmHg 87%

27 October, Tuesday

Time Temperature Precipitation Wind Pressure Humidity
00:00 +12°C° 0 mm 5 mps 744 mmHg 87%
01:00 +13°C° 0 mm 5 mps 745 mmHg 86%
02:00 +13°C° 0 mm 5 mps 745 mmHg 85%
03:00 +13°C° 0 mm 5 mps 745 mmHg 84%
04:00 +13°C° 0 mm 5 mps 745 mmHg 83%
05:00 +13°C° 0 mm 5 mps 745 mmHg 83%
06:00 +13°C° 0 mm 5 mps 745 mmHg 83%
07:00 +13°C° 0 mm 4 mps 745 mmHg 83%
08:00 +13°C° 0 mm 4 mps 745 mmHg 83%
09:00 +13°C° 0 mm 5 mps 745 mmHg 80%
10:00 +14°C° 0 mm 5 mps 746 mmHg 78%
11:00 +15°C° 0 mm 5 mps 746 mmHg 75%
12:00 +16°C° 0 mm 5 mps 746 mmHg 72%
13:00 +16°C° 0 mm 5 mps 746 mmHg 69%
14:00 +17°C° 0 mm 5 mps 746 mmHg 66%
15:00 +17°C° 0 mm 4 mps 746 mmHg 69%
16:00 +17°C° 0 mm 4 mps 746 mmHg 72%
17:00 +15°C° 0 mm 4 mps 745 mmHg 75%
18:00 +14°C° 0 mm 4 mps 746 mmHg 77%
19:00 +14°C° 0 mm 4 mps 746 mmHg 78%
20:00 +13°C° 0 mm 4 mps 746 mmHg 79%
21:00 +13°C° 0 mm 4 mps 746 mmHg 82%
22:00 +13°C° 0 mm 4 mps 746 mmHg 84%
23:00 +13°C° 0 mm 4 mps 746 mmHg 87%

28 October, Wednesday

Time Temperature Precipitation Wind Pressure Humidity
00:00 +12°C° 0 mm 4 mps 746 mmHg 89%
01:00 +12°C° 0 mm 4 mps 746 mmHg 91%
02:00 +12°C° 0 mm 4 mps 746 mmHg 93%
03:00 +11°C° 0 mm 3 mps 746 mmHg 93%
04:00 +11°C° 0 mm 3 mps 746 mmHg 94%
05:00 +10°C° 0 mm 2 mps 747 mmHg 95%
06:00 +10°C° 0 mm 2 mps 747 mmHg 95%
07:00 +10°C° 0 mm 2 mps 747 mmHg 95%
08:00 +11°C° 0 mm 1 mps 748 mmHg 95%
09:00 +12°C° 0 mm 1 mps 748 mmHg 90%
10:00 +13°C° 0 mm 1 mps 748 mmHg 85%
11:00 +14°C° 0 mm 2 mps 748 mmHg 81%
12:00 +15°C° 0 mm 2 mps 748 mmHg 78%
13:00 +15°C° 0 mm 2 mps 748 mmHg 75%
14:00 +16°C° 0 mm 2 mps 748 mmHg 71%
15:00 +15°C° 0 mm 2 mps 748 mmHg 75%
16:00 +14°C° 0 mm 1 mps 748 mmHg 79%
17:00 +13°C° 0 mm 1 mps 748 mmHg 83%
18:00 +13°C° 0 mm 1 mps 748 mmHg 84%
19:00 +13°C° 0 mm 1 mps 748 mmHg 85%
20:00 +12°C° 0 mm 2 mps 748 mmHg 87%
21:00 +12°C° 0 mm 2 mps 748 mmHg 86%
22:00 +13°C° 0 mm 2 mps 748 mmHg 86%
23:00 +13°C° 0 mm 2 mps 748 mmHg 85%

29 October, Thursday

Time Temperature Precipitation Wind Pressure Humidity
00:00 +12°C° 0 mm 2 mps 748 mmHg 87%
01:00 +12°C° 0 mm 2 mps 748 mmHg 88%
02:00 +12°C° 0 mm 2 mps 748 mmHg 89%
03:00 +12°C° 0 mm 2 mps 748 mmHg 89%
04:00 +12°C° 0 mm 2 mps 748 mmHg 90%
05:00 +12°C° 0 mm 2 mps 748 mmHg 91%
06:00 +10°C° 0 mm 2 mps 748 mmHg 91%
07:00 +10°C° 0 mm 2 mps 748 mmHg 92%
08:00 +10°C° 0 mm 2 mps 748 mmHg 92%
09:00 +12°C° 0 mm 2 mps 748 mmHg 84%
10:00 +12°C° 0 mm 3 mps 748 mmHg 76%
11:00 +13°C° 0 mm 3 mps 749 mmHg 68%
12:00 +14°C° 0 mm 4 mps 749 mmHg 63%
13:00 +14°C° 0 mm 4 mps 749 mmHg 59%
14:00 +15°C° 0 mm 5 mps 749 mmHg 55%
15:00 +14°C° 0 mm 4 mps 749 mmHg 59%
16:00 +13°C° 0 mm 3 mps 749 mmHg 64%
17:00 +13°C° 0 mm 3 mps 749 mmHg 68%
18:00 +12°C° 0.1 mm 3 mps 749 mmHg 70%
19:00 +12°C° 0.1 mm 3 mps 749 mmHg 71%
20:00 +12°C° 0.1 mm 4 mps 750 mmHg 73%
21:00 +11°C° 0 mm 3 mps 750 mmHg 77%
22:00 +10°C° 0 mm 3 mps 750 mmHg 81%
23:00 +9°C° 0 mm 3 mps 751 mmHg 85%
Show more